| time (UTC) | temp F | wind direction | speed MPH | gust MPH | rain 1hr in | rain 24hr in | rain mn in | humidity % | barometer mb |
| 20260506175029 | 81 | 124 | 1.0 | 3.0 | 0.00 | 0.00 | 0.00 | 85 | 1012.9 |
| 20260506174016 | 82 | 338 | 0.0 | 3.0 | 0.00 | 0.00 | 0.00 | 84 | 1013.0 |
| 20260506173021 | 81 | 0.0 | 0.0 | 0.00 | 0.00 | 0.00 | 86 | 1013.1 | |
| 20260506172026 | 80 | 0.0 | 0.0 | 0.00 | 0.00 | 0.00 | 86 | 1012.9 | |
| 20260506171031 | 79 | 356 | 1.0 | 2.0 | 0.00 | 0.00 | 0.00 | 89 | 1013.1 |
| 20260506170019 | 78 | 0.0 | 0.0 | 0.00 | 0.00 | 0.00 | 91 | 1012.9 | |
| 20260506165024 | 77 | 0.0 | 0.0 | 0.00 | 0.00 | 0.00 | 92 | 1012.9 | |
| 20260506164030 | 77 | 324 | 0.0 | 2.0 | 0.00 | 0.00 | 0.00 | 93 | 1012.9 |
| 20260506163017 | 77 | 87 | 1.0 | 2.0 | 0.00 | 0.00 | 0.00 | 93 | 1012.9 |
| 20260506162022 | 77 | 293 | 0.0 | 2.0 | 0.00 | 0.00 | 0.00 | 93 | 1012.8 |
| 20260506161047 | 77 | 0.0 | 2.0 | 0.00 | 0.00 | 0.00 | 93 | 1012.6 | |
| 20260506160032 | 77 | 113 | 0.0 | 2.0 | 0.00 | 0.00 | 0.00 | 92 | 1012.5 |
| 20260506155100 | 77 | 0.0 | 1.0 | 0.00 | 0.00 | 0.00 | 91 | 1012.5 | |
| 20260506154025 | 77 | 0.0 | 0.0 | 0.00 | 0.00 | 0.00 | 91 | 1012.4 | |
| 20260506153050 | 77 | 158 | 0.0 | 2.0 | 0.00 | 0.00 | 0.00 | 90 | 1012.3 |
| 20260506152018 | 77 | 0.0 | 0.0 | 0.00 | 0.00 | 0.00 | 90 | 1012.1 | |
| 20260506151023 | 77 | 0.0 | 0.0 | 0.00 | 0.00 | 0.00 | 91 | 1011.9 | |
| 20260506150028 | 77 | 0.0 | 0.0 | 0.00 | 0.00 | 0.00 | 91 | 1011.9 | |
| 20260506145015 | 77 | 0.0 | 0.0 | 0.00 | 0.00 | 0.00 | 92 | 1011.8 | |
| 20260506144021 | 77 | 0.0 | 0.0 | 0.00 | 0.00 | 0.00 | 92 | 1011.7 | |
| 20260506143026 | 76 | 0.0 | 0.0 | 0.00 | 0.00 | 0.00 | 92 | 1011.5 | |
| 20260506142031 | 76 | 0.0 | 1.0 | 0.00 | 0.00 | 0.00 | 93 | 1011.4 | |
| 20260506141019 | 76 | 137 | 1.0 | 2.0 | 0.00 | 0.00 | 0.00 | 93 | 1011.1 |
| 20260506140024 | 76 | 140 | 1.0 | 3.0 | 0.00 | 0.00 | 0.00 | 93 | 1010.9 |
| 20260506135028 | 76 | 97 | 1.0 | 3.0 | 0.00 | 0.00 | 0.00 | 93 | 1010.7 |
| 20260506134017 | 76 | 125 | 1.0 | 5.0 | 0.00 | 0.00 | 0.00 | 94 | 1010.5 |
| 20260506133021 | 75 | 140 | 1.0 | 3.0 | 0.00 | 0.00 | 0.00 | 95 | 1010.5 |
| 20260506132026 | 75 | 152 | 1.0 | 4.0 | 0.00 | 0.00 | 0.00 | 95 | 1010.5 |
| 20260506131032 | 75 | 138 | 2.0 | 4.0 | 0.00 | 0.00 | 0.00 | 95 | 1010.4 |
| 20260506130039 | 75 | 137 | 2.0 | 5.0 | 0.00 | 0.00 | 0.00 | 95 | 1010.2 |
| 20260506125024 | 75 | 144 | 2.0 | 5.0 | 0.00 | 0.00 | 0.00 | 95 | 1010.2 |
| 20260506124030 | 74 | 120 | 2.0 | 7.0 | 0.00 | 0.00 | 0.00 | 95 | 1010.2 |
| 20260506123017 | 74 | 131 | 2.0 | 4.0 | 0.00 | 0.00 | 0.00 | 95 | 1010.2 |
| 20260506122023 | 74 | 114 | 1.0 | 3.0 | 0.00 | 0.00 | 0.00 | 95 | 1010.4 |
| 20260506121027 | 74 | 88 | 1.0 | 4.0 | 0.00 | 0.00 | 0.00 | 95 | 1010.2 |
| 20260506120015 | 74 | 0.0 | 0.0 | 0.00 | 0.00 | 0.00 | 95 | 1010.2 | |
| 20260506115020 | 74 | 91 | 1.0 | 5.0 | 0.00 | 0.00 | 0.00 | 95 | 1010.3 |
| 20260506114026 | 74 | 180 | 0.0 | 1.0 | 0.00 | 0.00 | 0.00 | 95 | 1010.3 |
| 20260506113031 | 74 | 0.0 | 0.0 | 0.00 | 0.00 | 0.00 | 95 | 1010.2 | |
| 20260506112018 | 74 | 0.0 | 0.0 | 0.00 | 0.00 | 0.00 | 95 | 1010.2 | |
| 20260506111023 | 74 | 0.0 | 0.0 | 0.00 | 0.00 | 0.00 | 95 | 1010.2 | |
| 20260506110028 | 75 | 171 | 1.0 | 4.0 | 0.00 | 0.00 | 0.00 | 95 | 1010.2 |
| 20260506105036 | 75 | 0.0 | 0.0 | 0.00 | 0.00 | 0.00 | 95 | 1010.1 | |
| 20260506104021 | 75 | 145 | 1.0 | 4.0 | 0.00 | 0.00 | 0.00 | 95 | 1010.0 |
| 20260506103026 | 75 | 132 | 1.0 | 4.0 | 0.00 | 0.00 | 0.00 | 95 | 1010.0 |
| 20260506102032 | 75 | 200 | 1.0 | 4.0 | 0.00 | 0.00 | 0.00 | 95 | 1010.0 |
| 20260506101039 | 75 | 150 | 3.0 | 6.0 | 0.00 | 0.00 | 0.00 | 95 | 1010.0 |
| 20260506100024 | 75 | 155 | 1.0 | 4.0 | 0.00 | 0.00 | 0.00 | 95 | 1010.0 |
| 20260506095030 | 75 | 151 | 4.0 | 5.0 | 0.00 | 0.00 | 0.00 | 95 | 1009.9 |
| 20260506094017 | 74 | 165 | 4.0 | 6.0 | 0.00 | 0.00 | 0.00 | 95 | 1009.9 |
| 20260506093022 | 74 | 146 | 2.0 | 4.0 | 0.00 | 0.00 | 0.00 | 95 | 1010.0 |
| 20260506092107 | 74 | 141 | 1.0 | 3.0 | 0.00 | 0.00 | 0.00 | 95 | 1010.0 |
| 20260506091027 | 75 | 129 | 3.0 | 5.0 | 0.00 | 0.00 | 0.00 | 95 | 1010.0 |
| 20260506090040 | 75 | 141 | 3.0 | 6.0 | 0.00 | 0.00 | 0.00 | 95 | 1010.0 |
| 20260506085025 | 75 | 143 | 2.0 | 6.0 | 0.00 | 0.00 | 0.00 | 94 | 1010.1 |
| 20260506084024 | 75 | 142 | 4.0 | 6.0 | 0.00 | 0.00 | 0.00 | 94 | 1010.2 |
| 20260506083018 | 75 | 206 | 4.0 | 7.0 | 0.00 | 0.00 | 0.00 | 93 | 1010.2 |
| 20260506082023 | 75 | 175 | 3.0 | 6.0 | 0.00 | 0.00 | 0.00 | 93 | 1010.2 |
| 20260506081102 | 75 | 135 | 4.0 | 6.0 | 0.00 | 0.00 | 0.00 | 93 | 1010.2 |
| 20260506073020 | 76 | 134 | 4.0 | 8.0 | 0.00 | 0.00 | 0.00 | 93 | 1010.4 |
| 20260506072019 | 76 | 118 | 3.0 | 5.0 | 0.00 | 0.00 | 0.00 | 93 | 1010.4 |
| 20260506071018 | 76 | 136 | 4.0 | 6.0 | 0.00 | 0.00 | 0.00 | 93 | 1010.5 |
| 20260506062052 | 76 | 153 | 5.0 | 7.0 | 0.00 | 0.00 | 0.00 | 93 | 1010.5 |
| 20260506061020 | 76 | 129 | 4.0 | 7.0 | 0.00 | 0.00 | 0.00 | 93 | 1010.5 |
| 20260506051015 | 76 | 127 | 5.0 | 8.0 | 0.00 | 0.00 | 0.00 | 92 | 1010.4 |
| 20260506045046 | 77 | 119 | 5.0 | 8.0 | 0.00 | 0.00 | 0.00 | 91 | 1010.2 |
| 20260506044031 | 77 | 122 | 5.0 | 7.0 | 0.00 | 0.00 | 0.00 | 91 | 1010.2 |
| 20260506043018 | 77 | 117 | 5.0 | 9.0 | 0.00 | 0.00 | 0.00 | 90 | 1010.2 |
| 20260506042104 | 78 | 142 | 6.0 | 9.0 | 0.00 | 0.00 | 0.00 | 90 | 1010.0 |
| 20260506041029 | 78 | 137 | 5.0 | 8.0 | 0.00 | 0.00 | 0.00 | 89 | 1010.0 |
| 20260506040016 | 78 | 130 | 4.0 | 7.0 | 0.00 | 0.00 | 0.00 | 89 | 1009.8 |
| 20260506035021 | 78 | 132 | 4.0 | 7.0 | 0.00 | 0.00 | 0.00 | 88 | 1009.7 |
| 20260506034027 | 79 | 178 | 5.0 | 7.0 | 0.00 | 0.00 | 0.00 | 88 | 1009.6 |
| 20260506033032 | 79 | 122 | 5.0 | 8.0 | 0.00 | 0.00 | 0.00 | 87 | 1009.5 |
| 20260506032019 | 80 | 160 | 6.0 | 8.0 | 0.00 | 0.00 | 0.00 | 87 | 1009.5 |
| 20260506031024 | 80 | 15 | 4.0 | 7.0 | 0.00 | 0.00 | 0.00 | 86 | 1009.5 |
| 20260506030030 | 81 | 130 | 2.0 | 5.0 | 0.00 | 0.00 | 0.00 | 85 | 1009.2 |
| 20260506025017 | 81 | 37 | 3.0 | 5.0 | 0.00 | 0.00 | 0.00 | 85 | 1009.1 |
| 20260506024022 | 81 | 113 | 4.0 | 8.0 | 0.00 | 0.00 | 0.00 | 84 | 1008.9 |
| 20260506023027 | 82 | 99 | 3.0 | 5.0 | 0.00 | 0.00 | 0.00 | 83 | 1008.7 |
| 20260506022053 | 82 | 126 | 3.0 | 5.0 | 0.00 | 0.00 | 0.00 | 81 | 1008.7 |
| 20260506021020 | 83 | 110 | 3.0 | 4.0 | 0.00 | 0.00 | 0.00 | 79 | 1008.6 |
| 20260506020025 | 83 | 69 | 3.0 | 5.0 | 0.00 | 0.00 | 0.00 | 78 | 1008.3 |
| 20260506015030 | 84 | 107 | 3.0 | 5.0 | 0.00 | 0.00 | 0.00 | 77 | 1008.2 |
| 20260506014018 | 84 | 117 | 3.0 | 6.0 | 0.00 | 0.00 | 0.00 | 77 | 1008.1 |
| 20260506013023 | 84 | 113 | 1.0 | 2.0 | 0.00 | 0.00 | 0.00 | 77 | 1007.9 |
| 20260506012028 | 84 | 120 | 1.0 | 4.0 | 0.00 | 0.00 | 0.00 | 76 | 1007.7 |
| 20260506011016 | 85 | 130 | 1.0 | 3.0 | 0.00 | 0.00 | 0.00 | 75 | 1007.5 |
| 20260506010021 | 86 | 110 | 1.0 | 2.0 | 0.00 | 0.00 | 0.00 | 73 | 1007.5 |
| 20260506005046 | 87 | 0.0 | 0.0 | 0.00 | 0.00 | 0.00 | 71 | 1007.4 | |
| 20260506004031 | 88 | 111 | 1.0 | 2.0 | 0.00 | 0.00 | 0.00 | 69 | 1007.4 |
| 20260506003019 | 89 | 138 | 1.0 | 3.0 | 0.00 | 0.00 | 0.00 | 68 | 1007.4 |
| 20260506002024 | 90 | 101 | 2.0 | 3.0 | 0.00 | 0.00 | 0.00 | 66 | 1007.4 |
| 20260506001029 | 93 | 190 | 1.0 | 3.0 | 0.00 | 0.00 | 0.00 | 63 | 1007.4 |
| 20260506000016 | 92 | 0.0 | 0.0 | 0.00 | 0.00 | 0.00 | 63 | 1007.4 | |
| 20260505235041 | 94 | 226 | 1.0 | 2.0 | 0.00 | 0.00 | 0.00 | 61 | 1007.3 |
| 20260505234027 | 92 | 133 | 2.0 | 4.0 | 0.00 | 0.00 | 0.00 | 63 | 1007.3 |
| 20260505233053 | 93 | 181 | 2.0 | 4.0 | 0.00 | 0.00 | 0.00 | 61 | 1007.4 |
| 20260505232040 | 92 | 157 | 2.0 | 5.0 | 0.00 | 0.00 | 0.00 | 63 | 1007.5 |
| 20260505231025 | 93 | 139 | 3.0 | 6.0 | 0.00 | 0.00 | 0.00 | 62 | 1007.3 |
| 20260505230050 | 91 | 131 | 2.0 | 4.0 | 0.00 | 0.00 | 0.00 | 64 | 1007.4 |
| 20260505225017 | 92 | 134 | 1.0 | 4.0 | 0.00 | 0.00 | 0.00 | 63 | 1007.3 |
| 20260505224022 | 91 | 158 | 3.0 | 5.0 | 0.00 | 0.00 | 0.00 | 64 | 1007.3 |
| 20260505223028 | 92 | 261 | 3.0 | 6.0 | 0.00 | 0.00 | 0.00 | 63 | 1007.4 |
| 20260505222035 | 92 | 335 | 4.0 | 5.0 | 0.00 | 0.00 | 0.00 | 64 | 1007.4 |
| 20260505221020 | 90 | 114 | 3.0 | 6.0 | 0.00 | 0.00 | 0.00 | 65 | 1007.6 |
| 20260505220026 | 91 | 187 | 4.0 | 5.0 | 0.00 | 0.00 | 0.00 | 64 | 1007.6 |
| 20260505215031 | 91 | 217 | 3.0 | 7.0 | 0.00 | 0.00 | 0.00 | 65 | 1007.7 |
| 20260505214018 | 89 | 162 | 3.0 | 5.0 | 0.00 | 0.00 | 0.00 | 67 | 1007.9 |
| 20260505213023 | 88 | 340 | 3.0 | 6.0 | 0.00 | 0.00 | 0.00 | 68 | 1008.1 |
| 20260505212028 | 91 | 178 | 4.0 | 6.0 | 0.00 | 0.00 | 0.00 | 65 | 1008.2 |
| 20260505211016 | 90 | 161 | 3.0 | 6.0 | 0.00 | 0.00 | 0.00 | 66 | 1008.3 |
| 20260505210021 | 91 | 221 | 3.0 | 5.0 | 0.00 | 0.00 | 0.00 | 66 | 1008.6 |
| 20260505205027 | 91 | 269 | 3.0 | 6.0 | 0.00 | 0.00 | 0.00 | 65 | 1008.8 |
| 20260505204031 | 91 | 243 | 2.0 | 3.0 | 0.00 | 0.00 | 0.00 | 65 | 1008.9 |
| 20260505203019 | 90 | 205 | 3.0 | 5.0 | 0.00 | 0.00 | 0.00 | 68 | 1009.0 |
| 20260505202024 | 88 | 211 | 3.0 | 5.0 | 0.00 | 0.00 | 0.00 | 69 | 1009.2 |
| 20260505201030 | 90 | 262 | 3.0 | 7.0 | 0.00 | 0.00 | 0.00 | 66 | 1009.2 |
| 20260505200037 | 88 | 241 | 3.0 | 6.0 | 0.00 | 0.00 | 0.00 | 69 | 1009.5 |
| 20260505195022 | 86 | 222 | 3.0 | 4.0 | 0.00 | 0.00 | 0.00 | 72 | 1009.6 |
| 20260505194027 | 85 | 138 | 3.0 | 6.0 | 0.00 | 0.00 | 0.00 | 73 | 1009.6 |
| 20260505193026 | 87 | 184 | 3.0 | 7.0 | 0.00 | 0.00 | 0.00 | 72 | 1009.6 |
| 20260505192020 | 86 | 233 | 3.0 | 5.0 | 0.00 | 0.00 | 0.00 | 72 | 1009.8 |
| 20260505191025 | 86 | 197 | 2.0 | 4.0 | 0.00 | 0.00 | 0.00 | 72 | 1010.0 |
| 20260505190024 | 87 | 234 | 2.0 | 4.0 | 0.00 | 0.00 | 0.00 | 71 | 1010.2 |
| 20260505185018 | 88 | 296 | 3.0 | 6.0 | 0.00 | 0.00 | 0.00 | 70 | 1010.2 |
| 20260505184023 | 87 | 271 | 4.0 | 7.0 | 0.00 | 0.00 | 0.00 | 70 | 1010.3 |
| 20260505183022 | 86 | 268 | 4.0 | 6.0 | 0.00 | 0.00 | 0.00 | 72 | 1010.5 |
| 20260505182035 | 87 | 278 | 4.0 | 5.0 | 0.00 | 0.00 | 0.00 | 73 | 1010.5 |
| 20260505181021 | 84 | 198 | 3.0 | 5.0 | 0.00 | 0.00 | 0.00 | 74 | 1010.5 |
| 20260505180020 | 84 | 212 | 3.0 | 5.0 | 0.00 | 0.00 | 0.00 | 76 | 1010.7 |